Regional Weather Roundup
Issued by NWS Upton, NY

Current Version | Previous Version | Text Only | Print | Product List | Glossary On
Versions: 1 2 3 4 5 6 7 8 9 10 11 12 13 14 15 16 17 18 19 20 21 22 23 24 25 26 27 28 29 30 31 32 33 34 35 36 37 38 39 40 41 42 43 44 45 46 47 48 49 50
526
ASUS41 KOKX 211208
RWROKX

REGIONAL WEATHER ROUNDUP
NATIONAL WEATHER SERVICE NEW YORK NY
700 AM EST SAT JAN 21 2017

NOTE: "FAIR" INDICATES FEW OR NO CLOUDS BELOW 12,000 FEET WITH NO
SIGNIFICANT WEATHER AND/OR OBSTRUCTIONS TO VISIBILITY.

NYZ071-072-176-178-NJZ106-104-211300-
NEW YORK CITY METRO AREA

CITY           SKY/WX    TMP DP  RH WIND       PRES   REMARKS
Central Park   CLOUDY    42  40  92 VRB7      29.90S
Wall St Helipt CLOUDY    43  40  89 W7        29.91R
LaGuardia APRT CLOUDY    45  41  86 W3        29.88S
Kennedy INTL   CLOUDY    43  43 100 SW9       29.90S FOG
Breezy Point     N/A     41 N/A N/A SW5         N/A
Newark/Liberty CLOUDY    43  41  93 SW8       29.89S FOG
Teterboro      CLOUDY    43  41  93 S3        29.88S FOG
$$

NYZ177-179-078>081-211300-
LONG ISLAND NEW YORK

CITY           SKY/WX    TMP DP  RH WIND       PRES   REMARKS
Jones Beach      N/A     41 N/A N/A W7          N/A
Matinecock PT  NOT AVBL
Farmingdale    CLOUDY    43  41  93 W6        29.89R FOG
MacArthur/ISP  CLOUDY    42  42 100 SW3       29.88S FOG
Shirley        CLOUDY    42  42 100 SW3       29.89R FOG
Westhampton    CLOUDY    42  40  92 W6        29.90R
Southampton    NOT AVBL
Bridgehampton  NOT AVBL
East Hampton   CLOUDY    42  41  95 W6        29.88S FOG
Montauk          N/A     43  42  97 SW5       29.88F
$$

NYZ052-065-067-211300-
HUDSON VALLEY

CITY           SKY/WX    TMP DP  RH WIND       PRES   REMARKS
White Plains     N/A     41  39  93 W7        29.86R FOG
Newburgh       MOCLDY    39  39 100 SW6       29.87S WCI  35
Montgomery     CLOUDY    40  38  93 SW6       29.85S
Poughkeepsie   CLOUDY    40  38  93 CALM      29.86R
Albany         DRIZZLE   39  36  89 S6        29.85S WCI  35
$$

NJZ001-105-106-008-010-013-015-019>022-104-211300-
NEW JERSEY

CITY           SKY/WX    TMP DP  RH WIND       PRES   REMARKS
Newark/Liberty CLOUDY    43  41  93 SW8       29.89S FOG
Teterboro      CLOUDY    43  41  93 S3        29.88S FOG
Caldwell       CLOUDY    41  40  96 CALM      29.88F FOG
Somerville     CLOUDY    41  39  93 CALM      29.88S FOG
Linden         CLOUDY    42  40  93 W7        29.90R FOG
Sussex         CLOUDY    39  39 100 SW5       29.87S FOG
Andover          N/A     38  38 100 CALM      29.88R
Trenton        CLOUDY    42  42 100 CALM      29.90R FOG
Millville      FOG       44  44 100 CALM      29.92R VSB 1
Atlantic City  FOG       44  42  93 W3        29.92R VSB 1
Wrightstown    CLOUDY    43  41  93 W5        29.88S
Toms River     CLOUDY    43  43 100 W5        29.92R FOG
Belmar         CLOUDY    42  42 100 SW7       29.92R FOG
$$

PAZ047>061-062-071-211300-
EASTERN PENNSYLVANIA

CITY           SKY/WX    TMP DP  RH WIND       PRES   REMARKS
Philadelphia   CLOUDY    43  42  97 W5        29.92S FOG
Allentown      FOG       40  38  93 SW5       29.89S VSB 1
Scranton       CLOUDY    39  39 100 W5        29.86S FOG
$$

CTZ002-004>006-009-010-012-RIZ004-006-007-MAZ004-011-015-211300-
SOUTHERN NEW ENGLAND
 IN CT

CITY           SKY/WX    TMP DP  RH WIND       PRES   REMARKS
Bradley INTL   CLOUDY    38  38 100 S7        29.85F FOG     WCI  33
Hartford       CLOUDY    39  39 100 S5        29.87S FOG
Danbury        CLOUDY    39  38  96 W5        29.87S FOG
Wtrbury/Oxford FOG       37  36  93 CALM      29.87R VSB 1/8
Bridgeport     CLOUDY    42  40  92 SW3       29.88R FOG
Meriden        FOG       40  38  93 CALM      29.88S VSB 1/2
New Haven      FOG       40  39  97 CALM      29.88S VSB 3/4
Chester        FOG       41  39  93 CALM      29.86S VSB 1/2
Groton         CLOUDY    42  40  92 W6        29.87S FOG
Wilimantic     CLOUDY    39  38  96 CALM      29.87S FOG

 IN RI

CITY           SKY/WX    TMP DP  RH WIND       PRES   REMARKS
Providence     CLOUDY    41  38  89 S3        29.87R
Block Island   NOT AVBL
Westerly       CLOUDY    43  39  86 SW6       29.87F FOG
 IN MA

CITY           SKY/WX    TMP DP  RH WIND       PRES   REMARKS
Boston         CLOUDY    39  38  96 S6        29.85R WCI  35
Worcester      FOG       35  34  96 W9        29.82R VSB 1/2 WCI  28
Westfield      CLOUDY    36  36 100 CALM      29.84F FOG
Provincetown   CLOUDY    40  36  86 S8        29.87F WCI  34
Nantucket      CLOUDY    43  38  82 S6        29.88S
$$

ANZ330-335-338-340-345-350-353-355-211300-
COASTAL MARINE OBSERVATIONS


STATION/POSITION TIME  SKY/WX   TEMP    WIND        PRES    VSBY  WAVE
                                AIR SEA DIR/SP/G                  HT/PER
                 (UTC)          (F)     (DEG/KT/KT) (MB)    (MI)  (FT/S)
NY HARB ENTRANCE 1050            43 43  250/ 10/ 12 1012.2          3/11
20 S FIRE ISLAND 1050            45 45  260/ 12/ 14 1011.9          3/11
GREAT SOUTH BAY  NOT AVBL
23 SSW MONTAUK P NOT AVBL
15 E BARNEGAT LI 1130               47                N/A           3/11
HUDSON CANYON    1050            51 51              1012.5          4/11
KINGS POINT      1136            42 39              1011.6
EXECUTION ROCKS  1145            42     240/  6/  8   N/A
CENTRAL LI SOUND 1130            41     210/  4/  6   N/A           0
EASTERN LI SOUND NOT AVBL
ROBBINS REEF     1136            42     260/  8/  9 1012.2
$$


>>>>>>>>>>>>>>>>>>>>>>>>>>>> KEY <<<<<<<<<<<<<<<<<<<<<<<<<<<
>                                                          <
>     SKY/WX - Sky Condition/Present Weather               <
>     TMP    - Temperature in Fahrenheit                   <
>     DP     - Dew Point in Fahrenheit                     <
>     RH     - Relative Humidity in Percent                <
>     WIND   - Direction (from) and Speed in MPH           <
>     PRES   - Mean Sea Level Pressure (inches of Hg)      <
>     WCI    - Wind Chill Index                            <
>     VSB    - VISIBILITY IN MILES                         <
>     HX     - HEAT INDEX                                  <
>     TC     - TEMPERATURE IN CELSIUS                      <
>     VRB    - VARIABLE WIND DIRECTION                     <
>                                                          <
>>>>>>>>>>>>>>>>>>>>>>>>>>>> KEY <<<<<<<<<<<<<<<<<<<<<<<<<<<




USA.gov is the U.S. government's official web portal to all federal, state and local government web resources and services.